Location: Boussy-Saint-Antoine
(48.6830°N, 2.5330°E)
Time: 00:35:32
(UTC+02:00)

Gurwin Techsat 1B - Visible Passes

Search period start: 19 July 2019 00:00
Search period end: 29 July 2019 00:00
Orbit: 812 x 813 km, 98.7° (Epoch: 18 July)

Date Brightness Start Highest point End Pass type
(mag) Time Alt. Az. Time Alt. Az. Time Alt. Az.
19 Jul 11.0 02:08:10 10° ENE 02:09:35 11° E 02:11:00 10° E visible
19 Jul 8.7 03:45:07 10° NNE 03:50:28 73° ESE 03:54:00 22° S visible
19 Jul 10.3 05:26:01 10° N 05:29:52 21° WNW 05:33:43 10° WSW visible
20 Jul 9.3 03:22:22 10° NNE 03:27:32 47° E 03:30:49 21° SSE visible
20 Jul 9.8 05:02:42 10° N 05:07:16 30° WNW 05:11:48 10° WSW visible
21 Jul 9.9 02:59:48 10° NNE 03:04:32 31° E 03:07:37 18° SE visible
21 Jul 9.3 04:39:34 10° N 04:44:36 43° WNW 04:48:49 14° SW visible
22 Jul 10.5 02:37:30 10° NE 02:41:26 21° E 02:44:26 13° SE visible
22 Jul 8.8 04:16:33 10° N 04:21:51 65° WNW 04:25:38 19° SSW visible
23 Jul 10.9 02:15:47 10° ENE 02:18:16 13° E 02:20:45 10° ESE visible
23 Jul 8.6 03:53:39 10° NNE 03:59:01 85° ESE 04:02:26 23° SSW visible
24 Jul 9.0 03:30:52 10° NNE 03:36:07 56° E 03:39:14 24° S visible
24 Jul 10.0 05:11:24 10° N 05:15:44 26° WNW 05:20:02 10° WSW visible
25 Jul 9.7 03:08:13 10° NNE 03:13:09 36° E 03:16:03 21° SSE visible
25 Jul 9.5 04:48:12 10° N 04:53:05 37° WNW 04:57:15 13° SW visible
26 Jul 10.3 02:45:48 10° NE 02:50:05 24° E 02:52:51 16° SE visible
26 Jul 8.9 04:25:09 10° N 04:30:21 56° WNW 04:34:04 19° SW visible
27 Jul 10.8 02:23:46 10° NE 02:26:57 16° E 02:29:40 11° ESE visible
27 Jul 8.6 04:02:12 10° NNE 04:07:34 83° WNW 04:10:52 24° SSW visible
28 Jul 8.8 03:39:21 10° NNE 03:44:41 65° ESE 03:47:40 26° S visible
28 Jul 10.1 05:20:07 10° N 05:24:11 23° WNW 05:28:14 10° WSW visible
